Regional Weather Roundup
Issued by NWS

Home | Current Version | Previous Version | Graphics & Text | Print | Product List | Glossary On
Versions: 1 2 3 4 5 6 7 8 9 10 11 12 13 14 15 16 17 18 19 20 21 22 23 24 25 26 27 28 29 30 31 32 33 34 35 36 37 38 39 40 41 42 43 44 45 46 47 48 49 50
000
ASUS43 KIND 182259
RWRIN

WEATHER ROUNDUP FOR INDIANA
NATIONAL WEATHER SERVICE INDIANAPOLIS IN
700 PM EDT WED APR 18 2018

NOTE: "FAIR" INDICATES FEW OR NO CLOUDS BELOW 12,000 FEET WITH NO
SIGNIFICANT WEATHER AND/OR OBSTRUCTIONS TO VISIBILITY.

* - STATION DOES NOT REPORT WEATHER SUCH AS PRECIPITATION OR FOG.

+ - STATION NOT QUALITY CONTROLLED BY THE NATIONAL WEATHER SERVICE.
    USE DATA WITH CAUTION...ESPECIALLY DEWPOINT AND RELATIVE
    HUMIDITY OBSERVATIONS.

INZ001>003-010>013-019-020-190000-
NORTHWEST INDIANA

CITY           SKY/WX    TMP DP  RH WIND       PRES   REMARKS
GARY /AIRPORT/ LGT RAIN  36  34  93 N14       29.82R WCI  27
KNOX *+        CLOUDY    37  36  93 N8        29.77R WCI  31
MONTICELLO +   CLOUDY    43  33  67 NW10      29.75R

$$

LMZ046-743>745-190000-
SOUTHERN LAKE MICHIGAN

STATION/POSITION TIME  TEMP    WIND        PRES    WAVE
                       AIR SEA DIR/SP/G            HT
                 (UTC) (F)     (DEG/KT/KT) (MB)    (FT)
BURNS HARBOR     2240   35      10/ 16/ 19 1009.5R
MICHIGAN CITY    2230   34      10/ 21/ 22   N/A

$$

INZ004-005-014>016-021>024-190000-
NORTH CENTRAL INDIANA

CITY           SKY/WX    TMP DP  RH WIND       PRES   REMARKS
ELKHART        CLOUDY    37  34  87 NE6       29.76S FOG     WCI  33
GOSHEN         CLOUDY    39  34  82 NE9       29.75S WCI  33
PERU/GRISSOM   CLOUDY    48  39  70 CALM      29.71R
ROCHESTER +    CLOUDY    43  36  75 N7        29.75R
SOUTH BEND     CLOUDY    36  34  92 N7        29.78R FOG     WCI  30
WARSAW +       CLOUDY    37  34  87 E9        29.73S WCI  31

$$

INZ006>009-017-018-025>027-190000-
NORTHEAST INDIANA

CITY           SKY/WX    TMP DP  RH WIND       PRES   REMARKS
ANGOLA *+      CLOUDY    37  36  93 E7        29.75F WCI  32
FORT WAYNE     PTSUNNY   43  36  76 NE16      29.71F
KENDALLVILLE + CLOUDY    38  35  89 E10       29.74F WCI  31

$$

INZ028-029-035-036-043>045-051>053-190000-
WEST CENTRAL INDIANA

CITY           SKY/WX    TMP DP  RH WIND       PRES   REMARKS
GREENCASTLE +  FAIR      52  36  54 NW17G31   29.74R
LAFAYETTE      CLOUDY    46  37  71 NW12      29.76R
TERRE HAUTE    LGT RAIN  53  39  59 NW26G36   29.78R

$$

INZ030>032-037>040-046>048-054>057-064-065-190000-
CENTRAL INDIANA

CITY           SKY/WX    TMP DP  RH WIND       PRES   REMARKS
COLUMBUS       CLOUDY    64 N/A N/A NW21G30   29.66R
INDIANAPOLIS   FAIR      58  43  57 W26G39    29.72R
-EAGLE CREEK   FAIR      58  42  55 W22G39    29.70R
KOKOMO +       FAIR      49  39  68 VRB3      29.72R
MT COMFORT *+  PTSUNNY   61  50  67 W25       29.69R
SHELBYVILLE    CLOUDY    63  48  58 NW25G35   29.67R
ZIONSVILLE +   FAIR      56  44  64 NW21G30   29.72R

$$

INZ033-034-041-042-049-050-058-059-190000-
EAST CENTRAL INDIANA

CITY           SKY/WX    TMP DP  RH WIND       PRES   REMARKS
MUNCIE         CLOUDY    53  41  63 N7        29.68R
RICHMOND +     CLOUDY    55  48  76 E8        29.64S

$$

INZ060-061-067>069-081>083-085>088-190000-
SOUTHWEST INDIANA

CITY           SKY/WX    TMP DP  RH WIND       PRES   REMARKS
EVANSVILLE     FAIR      70  46  42 NW15G31   29.73R
HUNTINGBURG +  CLOUDY    67  49  52 NW16G30   29.71R

$$

INZ062-063-066-070>080-084-089>092-190000-
SOUTH CENTRAL AND SOUTHEAST INDIANA

CITY           SKY/WX    TMP DP  RH WIND       PRES   REMARKS
BLOOMINGTON    PTSUNNY   59  44  57 NW13G35   29.72R
SEYMOUR +      CLOUDY    70  48  46 W15G28    29.65R

$$





USA.gov is the U.S. government's official web portal to all federal, state and local government web resources and services.